User: anonymous   Login
Location: Theydon Bois
(51.6750°N, 0.1050°E)
Time: 17:03:49
(UTC+01:00)
Language:

Resurs 01 Rocket - Orbit

View from above orbital plane
View from above orbital plane
View from above satellite
View from above satellite

Ground track
Ground track

The orbit data is extracted from the following two-line orbital elements,

1 23343U 94074B   18110.15388015 -.00000011  00000-0  59960-5 0  9998
2 23343  98.1115 154.5756 0007364 158.1319 267.2877 14.76728579262132
Epoch (UTC): 20 April 2018 03:41:35
Eccentricity: 0.0007364
inclination: 98.1115°
perigee height: 634 km
apogee height: 645 km
right ascension of ascending node: 154.5756°
argument of perigee: 158.1319°
revolutions per day: 14.76728579
mean anomaly at epoch: 267.2877°
orbit number at epoch: 26213

The dashed part of the orbit path shows where the satellite is in the earth's shadow,  

DLR